www.pogodaiklimat.ru
ПОГОДА в Кувандыке
Время
(UTC), дата
15 7.07
18 7.07
21 7.07
00 8.07
03 8.07
06 8.07
09 8.07
12 8.07
15 8.07
18 8.07
21 8.07
00 9.07
03 9.07
06 9.07
09 9.07
12 9.07
15 9.07
18 9.07
21 9.07
00 10.07
03 10.07
06 10.07
09 10.07
12 10.07
15 10.07
18 10.07
21 10.07
00 11.07
03 11.07
06 11.07
09 11.07
12 11.07
15 11.07
18 11.07
21 11.07
00 12.07
03 12.07
06 12.07
09 12.07
12 12.07
15 12.07
18 12.07
21 12.07
00 13.07
03 13.07
06 13.07
09 13.07
12 13.07
15 13.07
18 13.07
21 13.07
00 14.07
03 14.07
06 14.07
09 14.07
12 14.07
Ветер
(напр.,м/с)
Видим. Явления Облачность Т
(С)
Тd
(С)
f
(%)
Тe
(С)
Тes
(С)
Комфортность P
(гПа)
Po
(гПа)
Тmin
(С)
Tmax
(С)
R
(мм)
R24
(мм)
S
(см)
Ю 2 50 км 6/3 600 м
[Cb calv Ci ing]
+24.7 +17.4 64 +29 +29 душно 1011.8 987.2 +32.7
штиль 0 20 км 3/0
[Ci fib]
+16.5 +15.9 96 +16 +16 1013.4 988.0
штиль 0 20 км ясно +14.0 +13.9 99 +14 +14 1014.3 988.6
Ю 1 4000 м дымка 10/10 300 м
[St]
+12.5 +12.5 100 +12 +12 1015.2 989.4
штиль 0 50 км ясно +21.4 +17.4 78 +25 +31 комфорт 1015.2 990.2 +12.4
В 5 50 км 3/3 1000 м
[Cu hum]
+28.8 +14.7 42 +31 +36 жарко 1014.6 990.2
В 6
{10}
50 км 8/6 600 м
[Cb calv Ci ing]
+30.8 +11.4 30 +31 +33 жарко 1014.3 990.0
В 6
{12}
50 км 5/4 1000 м
[Cu med, cong Ci fib]
+32.3 +9.2 24 +31 +33 жарко 1013.4 989.2
В 5
{14}
50 км 8/4 600 м
[Cb calv Ac As Ci fib]
+29.3 +10.2 31 +29 +30 жарко 1013.6 989.2 +32.6
З 1 20 км 3/0
[Ac As]
+21.3 +12.7 58 +24 +24 комфорт 1014.8 989.7
ЮЗ 1 20 км ясно +15.6 +13.3 86 +16 +16 1015.6 990.0
Ю 1 50 км ясно +13.2 +12.7 97 +13 +13 1016.3 990.5
З 2 50 км ясно +22.7 +15.5 64 +27 +31 душно 1015.8 990.8 +12.6
В 5 50 км ясно +30.8 +10.4 28 +31 +38 жарко 1014.7 990.4
В 5
{11}
50 км 4/4 600 м
[Cb cap]
+32.7 +8.1 22 +31 +37 жарко 1013.8 989.6
В 5
{11}
50 км 4/4 1000 м
[Cu hum]
+33.4 +7.4 20 +32 +34 жарко 1012.7 988.6
В 3
{10}
50 км 1/0
[Ac trans]
+31.7 +8.4 24 +31 +31 жарко 1012.1 987.9 +33.7
штиль 0 20 км ясно +19.0 +12.7 67 +20 +20 1013.7 988.5
Ю 1 20 км ясно +15.7 +13.3 86 +16 +16 1014.4 988.9
штиль 0 50 км ясно +11.6 +10.9 95 +11 +11 1015.4 989.5
штиль 0 50 км ясно +21.4 +13.8 62 +24 +29 комфорт 1015.2 990.2 +11.5
ЮЗ 1 50 км ясно +31.6 +9.5 26 +31 +47 жарко 1013.7 989.5
З 1 50 км ясно +34.8 +8.8 20 +33 +52 опасность
солнечного
удара
1012.6 988.6
З 2 50 км ясно +36.1 +7.4 17 +34 +42 очень
жарко
1011.5 987.7
З 2 50 км ясно +34.1 +10.2 23 +33 +34 жарко 1011.7 987.7 +36.5
штиль 0 20 км ясно +20.1 +14.5 70 +22 +22 комфорт 1013.8 988.6
В 1 20 км ясно +15.3 +12.9 86 +16 +16 1014.8 989.2
штиль 0 50 км ясно +13.6 +12.3 92 +13 +13 1015.1 989.4
З 1 50 км ясно +22.5 +14.5 61 +26 +31 жарко 1014.8 989.9 +13.1
С 1 50 км ясно +34.1 +13.1 28 +35 +50 очень
жарко
1013.5 989.5
ЮЗ 2 50 км 3/3 1000 м
[Cu hum]
+36.7 +8.1 17 +35 +46 очень
жарко
1012.5 988.7
З 2 50 км 3/3 1000 м
[Cu med, cong]
+37.9 +7.1 15 +35 +41 очень
жарко
1012.0 988.2
З 1 50 км 1/1 1000 м
[Cu med, cong]
+35.6 +10.3 22 +35 +35 очень
жарко
1011.7 987.8 +38.0
штиль 0 20 км 3/0
[Ci fib]
+20.4 +13.9 66 +22 +22 комфорт 1013.8 988.7
штиль 0 20 км 3/0
[Ci fib]
+17.6 +14.7 83 +18 +18 1014.8 989.4
Ю 1 50 км 4/0
[Ac trans Ci fib]
+16.7 +14.5 87 +18 +18 1015.3 989.8
СВ 3 50 км 6/1 600 м
[Cb calv Ci fib]
+27.7 +15.6 48 +31 +33 душно 1014.8 990.3 +16.3
В 4 50 км 9/0
[Ac As Cs]
+31.9 +15.0 36 +34 +40 душно 1014.4 990.3
В 4 50 км 9/0
[Cs]
+36.2 +12.8 25 +36 +45 очень
жарко
1013.6 989.8
В 3 50 км 9/6 600 м
[Cb calv Ac As Ci fib]
+36.1 +9.9 20 +35 +36 очень
жарко
1012.7 988.9
ЮЗ 4
{15}
50 км 10/5 600 м
[Cb calv Ac und]
+29.4 +10.2 30 +29 +30 жарко 1013.9 989.5 +37.5
З 1
{10}
20 км 10/5 600 м
[Cb calv Ac und]
+23.7 +13.1 51 +26 +26 жарко 1014.5 989.7
З 2 20 км 9/5 600 м
[Cb calv Ac As]
+24.7 +12.2 46 +26 +26 жарко 1014.2 989.4
С 1 50 км 9/5 600 м
[Cb cap Ac As]
+21.3 +13.7 62 +24 +24 комфорт 1014.0 989.0
Ю 1 50 км в посл. час гроза 9/5 600 м
[Cb cap Ac As Ci fib]
+21.4 +16.1 72 +25 +26 комфорт 1014.6 989.6 +17.7
СВ 4 4000 м гроза, ливневой дождь 10/8 660 м
[Cb cap Ac und]
+21.5 +16.8 75 +25 +26 комфорт 1015.6 990.6
штиль 0 50 км {гроза, ливн. дождь} 9/4 600 м
[Cb cap Ac As Ci fib]
+29.4 +17.9 50 +34 +41 очень
душно
1014.2 989.9
СВ 3 50 км {гроза, ливн. дождь} 9/3 600 м
[Cb cap Ac As Ci fib]
+33.0 +13.5 31 +34 +37 очень
жарко
1012.3 988.3
З 1 50 км 9/3 600 м
[Cb calv Ac As Ci fib]
+29.6 +16.2 44 +33 +33 душно 1011.8 987.5 +33.8 2
штиль 0 20 км 8/0
[Ac As Ci fib]
+21.4 +17.2 77 +25 +25 комфорт 1013.2 988.3
Ю 1 20 км 3/0
[Ci fib]
+18.3 +16.4 89 +20 +20 1013.9 988.7
штиль 0 50 км 9/5 600 м
[Cb calv Ac As]
+17.3 +15.7 90 +17 +17 1015.3 990.0
ЮВ 2 50 км 9/6 600 м
[Cb cap Ac As Ci fib]
+25.1 +16.3 58 +28 +29 жарко 1015.6 990.8 +17.1
ЮВ 5 50 км 5/3 600 м
[Cb calv Ci fib]
+33.7 +6.0 18 +32 +36 жарко 1014.8 990.7
В 5 50 км 3/3 600 м
[Cb calv]
+35.8 +9.2 20 +34 +40 очень
жарко
1014.1 990.2
В 4
{11}
50 км 3/3 1000 м
[Cu med, cong]
+36.6 +7.7 17 +35 +38 очень
жарко
1012.9 989.1
Местоположение метеостанции Кувандык (Оренбургская область, Россия): широта 51.47 долгота 57.37 высота над уровнем моря 225 м.
В архиве по умолчанию представлена погода в Кувандыке за последнюю неделю. Архивные данные за месяц целиком и за предыдущие месяцы, начиная с января 2011 года, Вы можете получить, выбрав интересующий диапазон дат из раскрывающегося списка и нажав кнопку "Найти!".
*Определитесь, кто Вы:
Внимание! Время в таблицах - всемирное. Для получения местного времени необходимо прибавить поправку, которая равна 5 ч.
Смотрите также архив погоды в соседних городах и на ближайших метеорологических станциях:
Партнеры нашего сайта:      
Пояснения к столбцам:
  • Ветер - указаны скорость ветра в м/с - средняя за 10 мин, порывы в срок и между сроками (в фигурных скобках) и направление, откуда дует ветер: С - северный,
  • СВ - северо-восточный, В - восточный, ЮВ - юго-восточный, Ю - южный, ЮЗ - юго-западный, З - западный, СЗ - северо-западный.
  • Видимость - горизонтальная дальность видимости в метрах или километрах. При видимости от 1 до 10 км при отсутствии осадков обычно наблюдается дымка, при ухудшении видимости до 1 км и менее - туман. В сухую погоду видимость может ухудшаться дымом, пылью или мглою.
  • Явления - указаны атмосферные явления, наблюдавшиеся в срок или в последний час перед сроком; фигурными скобками обозначены явления, наблюдавшиеся между сроками (за 1-3 часа до срока); квадратными скобками обозначены град или гололедные отложения с указанием их диаметра в мм.
  • Облачность - указаны через наклонную черту общая и нижняя облачность в баллах и высота нижней границы облаков в метрах; квадратными скобками обозначены формы облаков: Ci - перистые, Cs - перисто-слоистые, Cc - перисто-кучевые, Ac - высококучевые, As - высокослоистые, Sc - слоисто-кучевые, Ns - слоисто-дождевые, Cu - кучевые, Cb - кучево-дождевые. Подробнее классификацию облаков см. в Атласе облаков (PDF).
  • T - Температура воздуха - температура, измеренная на высоте 2 м над землей.
  • Td - Температура точки росы - температура, при понижении до которой содержащийся в воздухе водяной пар достигнет насыщения.
  • f - Относительная влажность воздуха - влажноcть воздуха, измеренная на высоте 2 м над землей.
  • Te - Эффективная температура - температура, которую ощущает одетый по сезону человек в тени. Характеристика душности погоды. При расчете учитывается влияние влажности воздуха и скорости ветра на теплоощущения человека.
  • Tes - Эффективная температура на солнце - температура, которую ощущает человек, с поправкой на солнечный нагрев. Характеристика знойности погоды. Зависит от высоты солнца над горизонтом, облачности и скорости ветра. Ночью, в пасмурную погоду, а также при ветре 12 м/с и более поправка равна нулю.
  • P - Атмосферное давление - приведенное к уровню моря атмосферное давление.
  • Po - Атмосферное давление - измеренное на уровне метеостанции атмосферное давление.
  • Tmin - Минимальная температура - минимум температуры воздуха на высоте 2 м над землей.
  • Tmax - Максимальная температура - максимум температуры воздуха на высоте 2 м над землей.
  • R - Количество осадков - Количество выпавших осадков за период времени, мм. При наведении курсора мыши на число - период времени, за который выпало указанное количество осадков.
  • R24 - Количество осадков - Количество выпавших осадков за 24 часа, мм.
  • S - Снежный покров - Высота снежного покрова, см. При наведении курсора мыши на число - состояние снежного покрова и степень покрытия местности в баллах.